Weather History for Kalamazoo, MI

Change the Weather History Date:

Friday, July 13, 2012

  Actual Average Record
Temperature  
Mean Temperature 79 °F 73 °F  
Max Temperature 95 °F 83 °F 95 °F (2012)
Min Temperature 63 °F 62 °F 48 °F (1976)
Degree Days  
Heating Degree Days 0 0  
Month to date heating degree days 0  
Since 1 June heating degree days 48  
Since 1 July heating degree days 0  
Cooling Degree Days 14 8  
Month to date cooling degree days 101  
Year to date cooling degree days 287  
Since 1 June cooling degree days 246  
Growing Degree Days 28 (Base 50)    
Moisture  
Dew Point 61 °F    
Average Humidity 56    
Maximum Humidity 84    
Minimum Humidity 31    
Precipitation  
Precipitation 0.00 in 0.12 in 0.80 in (1950)
Month to date precipitation 0.21 1.45  
Year to date precipitation 17.47  
Sea Level Pressure  
Sea Level Pressure 30.08 in    
Wind  
Wind Speed 4 mph (SE)    
Max Wind Speed 18 mph    
Max Gust Speed 24 mph    
Visibility 10 miles    
Events      
T = Trace of Precipitation, MM = Missing Value Source: NWS Daily Summary

Daily Weather History Graph

Daily Weather History Graph

Search for Another Location

Airport:

Trip Planner

Search our weather history database for the weather conditions in past years. The results will help you decide how hot, cold, wet, or windy it might be!

Date:

Astronomy

Jul. 13, 2012 Rise Set
Actual Time 6:17 AM EDT 9:17 PM EDT
Civil Twilight 5:44 AM EDT 9:51 PM EDT
Nautical Twilight 5:01 AM EDT 10:33 PM EDT
Astronomical Twilight 4:11 AM EDT 11:24 PM EDT
Moon 1:56 AM EDT (7/13) 4:45 PM EDT (7/13)
Length of Visible Light 16h 06m
Length of Day
14h 59m
Waning Crescent, 26% of the Moon is Illuminated
Jul 13
Waning Crescent
Jul 19
New
Jul 26
First Quarter
Aug 1
Full
Aug 9
Last Quarter

Hourly Weather History & Observations

Time (EDT) Temp. Heat Index Dew Point Humidity Pressure Visibility Wind Dir Wind Speed Gust Speed Precip Events Conditions
12:53 AM 71.1 °F - 55.0 °F 57% 30.10 in 10.0 mi Calm Calm - N/A   Clear
1:53 AM 66.9 °F - 55.0 °F 66% 30.11 in 10.0 mi Calm Calm - N/A   Clear
2:53 AM 68.0 °F - 55.9 °F 65% 30.10 in 10.0 mi Calm Calm - N/A   Clear
3:53 AM 66.9 °F - 57.9 °F 73% 30.10 in 10.0 mi Calm Calm - N/A   Clear
4:53 AM 66.0 °F - 57.9 °F 75% 30.10 in 10.0 mi Calm Calm - N/A   Clear
5:53 AM 64.0 °F - 59.0 °F 84% 30.10 in 10.0 mi Calm Calm - N/A   Clear
6:53 AM 64.0 °F - 59.0 °F 84% 30.11 in 6.0 mi Calm Calm - N/A   Haze
7:53 AM 71.1 °F - 63.0 °F 75% 30.11 in 8.0 mi Calm Calm - N/A   Clear
8:53 AM 75.9 °F - 64.0 °F 67% 30.11 in 10.0 mi South 4.6 mph - N/A   Clear
9:53 AM 80.1 °F 81.9 °F 64.9 °F 60% 30.11 in 10.0 mi Calm Calm - N/A   Clear
10:53 AM 84.9 °F 87.1 °F 66.0 °F 53% 30.11 in 10.0 mi SSW 4.6 mph - N/A   Clear
11:53 AM 87.1 °F 88.9 °F 64.9 °F 48% 30.11 in 10.0 mi Variable 4.6 mph - N/A   Clear
12:53 PM 91.0 °F 91.5 °F 62.1 °F 38% 30.10 in 10.0 mi South 5.8 mph - N/A   Scattered Clouds
1:53 PM 90.0 °F 90.3 °F 62.1 °F 39% 30.09 in 10.0 mi SE 5.8 mph - N/A   Partly Cloudy
2:53 PM 93.0 °F 92.3 °F 59.0 °F 32% 30.07 in 10.0 mi Variable 5.8 mph 17.3 mph N/A   Partly Cloudy
3:53 PM 91.9 °F 90.6 °F 57.0 °F 31% 30.05 in 10.0 mi South 11.5 mph 16.1 mph N/A   Scattered Clouds
4:53 PM 90.0 °F 88.8 °F 57.9 °F 34% 30.06 in 10.0 mi NNW 12.7 mph 17.3 mph N/A   Mostly Cloudy
5:11 PM 89.6 °F 90.1 °F 62.6 °F 40% 30.07 in 10.0 mi NNW 16.1 mph 21.9 mph N/A   Mostly Cloudy
5:53 PM 82.9 °F 83.7 °F 62.1 °F 49% 30.06 in 10.0 mi North 10.4 mph - N/A   Mostly Cloudy
6:53 PM 82.0 °F 83.0 °F 62.1 °F 51% 30.05 in 10.0 mi ENE 4.6 mph - N/A   Overcast
7:53 PM 82.9 °F 83.7 °F 62.1 °F 49% 30.04 in 10.0 mi Variable 3.5 mph - N/A   Clear
8:53 PM 81.0 °F 81.9 °F 62.1 °F 52% 30.05 in 10.0 mi East 4.6 mph - N/A   Clear
9:53 PM 78.1 °F - 63.0 °F 60% 30.06 in 10.0 mi Calm Calm - N/A   Clear
10:53 PM 75.9 °F - 63.0 °F 64% 30.06 in 10.0 mi Calm Calm - N/A   Clear
11:53 PM 75.9 °F - 63.0 °F 64% 30.06 in 10.0 mi SSE 3.5 mph - N/A   Clear